Saint Bonnet de Bellac- Haute Vienne - France
Donnes mto: dimanche, 20/11/2011
Date Horaire Temp. E. Hum. E. P.atmo. Pluie Vent Direction Direction Ensoleilleme Solaire P. de rose Temp au vent Rafales
20/11/2011 00:00 9,1 C 84 % 1015,4 hPa 0,0 mm 0,0 km/h (0 Bft) E 90 0 min 0 W/m 6,5 C 9,1 C 0,0 km/h (0 Bft)
20/11/2011 00:05 9,1 C 84 % 1015,3 hPa 0,0 mm 0,7 km/h (0 Bft) S-SE 157 0 min 0 W/m 6,5 C 9,1 C 3,2 km/h (1 Bft)
20/11/2011 00:10 8,9 C 84 % 1015,4 hPa 0,0 mm 0,4 km/h (0 Bft) E 90 0 min 0 W/m 6,3 C 8,9 C 1,4 km/h (1 Bft)
20/11/2011 00:15 8,9 C 84 % 1015,4 hPa 0,0 mm 2,2 km/h (1 Bft) E 90 0 min 0 W/m 6,3 C 8,9 C 3,2 km/h (1 Bft)
20/11/2011 00:20 8,9 C 85 % 1015,5 hPa 0,0 mm 0,0 km/h (0 Bft) SE 135 0 min 0 W/m 6,5 C 8,9 C 0,0 km/h (0 Bft)
20/11/2011 00:25 8,9 C 84 % 1015,5 hPa 0,0 mm 2,2 km/h (1 Bft) E 90 0 min 0 W/m 6,3 C 8,9 C 4,3 km/h (1 Bft)
20/11/2011 00:30 8,9 C 85 % 1015,6 hPa 0,0 mm 0,0 km/h (0 Bft) E-SE 112 0 min 0 W/m 6,5 C 8,9 C 0,0 km/h (0 Bft)
20/11/2011 00:35 8,9 C 85 % 1015,6 hPa 0,0 mm 0,4 km/h (0 Bft) SE 135 0 min 0 W/m 6,5 C 8,9 C 3,2 km/h (1 Bft)
20/11/2011 00:40 8,9 C 85 % 1015,6 hPa 0,0 mm 2,5 km/h (1 Bft) E 90 0 min 0 W/m 6,5 C 8,9 C 4,0 km/h (1 Bft)
20/11/2011 00:45 9,1 C 85 % 1015,6 hPa 0,0 mm 4,3 km/h (1 Bft) SE 135 0 min 0 W/m 6,7 C 9,1 C 6,8 km/h (2 Bft)
20/11/2011 00:50 9,1 C 86 % 1015,6 hPa 0,0 mm 3,6 km/h (1 Bft) E 90 0 min 0 W/m 6,9 C 9,1 C 4,3 km/h (1 Bft)
20/11/2011 00:55 9,2 C 86 % 1015,7 hPa 0,0 mm 0,0 km/h (0 Bft) SE 135 0 min 0 W/m 7,0 C 9,2 C 0,0 km/h (0 Bft)
20/11/2011 01:00 9,4 C 85 % 1015,6 hPa 0,0 mm 0,0 km/h (0 Bft) E-SE 112 0 min 0 W/m 7,0 C 9,4 C 0,0 km/h (0 Bft)
20/11/2011 01:05 9,4 C 85 % 1015,7 hPa 0,0 mm 0,0 km/h (0 Bft) E 90 0 min 0 W/m 7,0 C 9,4 C 0,0 km/h (0 Bft)
20/11/2011 01:10 9,4 C 85 % 1015,7 hPa 0,0 mm 2,2 km/h (1 Bft) E 90 0 min 0 W/m 7,0 C 9,4 C 2,9 km/h (1 Bft)
20/11/2011 01:15 9,4 C 85 % 1015,7 hPa 0,0 mm 1,4 km/h (1 Bft) E-SE 112 0 min 0 W/m 7,0 C 9,4 C 3,2 km/h (1 Bft)
20/11/2011 01:20 9,4 C 85 % 1015,7 hPa 0,0 mm 0,4 km/h (0 Bft) E-SE 112 0 min 0 W/m 7,0 C 9,4 C 0,4 km/h (0 Bft)
20/11/2011 01:25 9,5 C 85 % 1015,7 hPa 0,0 mm 0,4 km/h (0 Bft) E 90 0 min 0 W/m 7,1 C 9,5 C 0,4 km/h (0 Bft)
20/11/2011 01:30 9,5 C 85 % 1015,8 hPa 0,0 mm 2,5 km/h (1 Bft) E-SE 112 0 min 0 W/m 7,1 C 9,5 C 2,5 km/h (1 Bft)
20/11/2011 01:35 9,6 C 85 % 1015,7 hPa 0,0 mm 1,4 km/h (1 Bft) E-SE 112 0 min 0 W/m 7,2 C 9,6 C 4,3 km/h (1 Bft)
20/11/2011 01:40 9,7 C 84 % 1015,7 hPa 0,0 mm 1,8 km/h (1 Bft) E 90 0 min 0 W/m 7,1 C 9,7 C 6,8 km/h (2 Bft)
20/11/2011 01:45 9,8 C 84 % 1015,7 hPa 0,0 mm 1,1 km/h (1 Bft) E-SE 112 0 min 0 W/m 7,2 C 9,8 C 4,3 km/h (1 Bft)
20/11/2011 01:50 9,8 C 84 % 1015,6 hPa 0,0 mm 4,0 km/h (1 Bft) E-SE 112 0 min 0 W/m 7,2 C 9,8 C 7,6 km/h (2 Bft)
20/11/2011 01:55 9,8 C 84 % 1015,6 hPa 0,0 mm 0,0 km/h (0 Bft) E-SE 112 0 min 0 W/m 7,2 C 9,8 C 0,0 km/h (0 Bft)
20/11/2011 02:02 9,8 C 84 % 1015,6 hPa 0,0 mm 1,8 km/h (1 Bft) E 90 0 min 0 W/m 7,2 C 9,8 C 4,3 km/h (1 Bft)
20/11/2011 02:05 9,8 C 84 % 1015,5 hPa 0,0 mm 0,0 km/h (0 Bft) E-SE 112 0 min 0 W/m 7,2 C 9,8 C 0,0 km/h (0 Bft)
20/11/2011 02:10 9,8 C 84 % 1015,6 hPa 0,0 mm 1,1 km/h (1 Bft) E-SE 112 0 min 0 W/m 7,2 C 9,8 C 3,6 km/h (1 Bft)
20/11/2011 02:15 9,8 C 84 % 1015,6 hPa 0,0 mm 0,0 km/h (0 Bft) E-SE 112 0 min 0 W/m 7,2 C 9,8 C 0,0 km/h (0 Bft)
20/11/2011 02:20 9,7 C 84 % 1015,6 hPa 0,0 mm 0,0 km/h (0 Bft) E 90 0 min 0 W/m 7,1 C 9,7 C 0,0 km/h (0 Bft)
20/11/2011 02:25 9,6 C 84 % 1015,5 hPa 0,0 mm 0,0 km/h (0 Bft) E-NE 67 0 min 0 W/m 7,0 C 9,6 C 0,0 km/h (0 Bft)
20/11/2011 02:30 9,5 C 84 % 1015,6 hPa 0,0 mm 0,0 km/h (0 Bft) E-NE 67 0 min 0 W/m 6,9 C 9,5 C 0,0 km/h (0 Bft)
20/11/2011 02:35 9,5 C 84 % 1015,6 hPa 0,0 mm 0,0 km/h (0 Bft) E-NE 67 0 min 0 W/m 6,9 C 9,5 C 0,0 km/h (0 Bft)
20/11/2011 02:40 9,4 C 84 % 1015,6 hPa 0,0 mm 0,0 km/h (0 Bft) E-NE 67 0 min 0 W/m 6,8 C 9,4 C 0,0 km/h (0 Bft)
20/11/2011 02:45 9,4 C 84 % 1015,6 hPa 0,0 mm 0,0 km/h (0 Bft) E-NE 67 0 min 0 W/m 6,8 C 9,4 C 0,0 km/h (0 Bft)
20/11/2011 02:50 9,4 C 84 % 1015,6 hPa 0,0 mm 0,0 km/h (0 Bft) E-NE 67 0 min 0 W/m 6,8 C 9,4 C 0,0 km/h (0 Bft)
20/11/2011 02:55 9,4 C 84 % 1015,6 hPa 0,0 mm 0,0 km/h (0 Bft) E-NE 67 0 min 0 W/m 6,8 C 9,4 C 0,0 km/h (0 Bft)
20/11/2011 03:00 9,4 C 84 % 1015,6 hPa 0,0 mm 0,0 km/h (0 Bft) E-NE 67 0 min 0 W/m 6,8 C 9,4 C 0,0 km/h (0 Bft)
20/11/2011 03:05 9,3 C 84 % 1015,6 hPa 0,0 mm 0,0 km/h (0 Bft) E-NE 67 0 min 0 W/m 6,7 C 9,3 C 0,0 km/h (0 Bft)
20/11/2011 03:10 9,2 C 84 % 1015,7 hPa 0,0 mm 0,0 km/h (0 Bft) E-NE 67 0 min 0 W/m 6,6 C 9,2 C 0,0 km/h (0 Bft)
20/11/2011 03:15 9,1 C 84 % 1015,6 hPa 0,0 mm 0,0 km/h (0 Bft) E-NE 67 0 min 0 W/m 6,5 C 9,1 C 0,0 km/h (0 Bft)
20/11/2011 03:20 8,9 C 84 % 1015,6 hPa 0,0 mm 0,0 km/h (0 Bft) E-NE 67 0 min 0 W/m 6,3 C 8,9 C 0,0 km/h (0 Bft)
20/11/2011 03:25 8,8 C 84 % 1015,5 hPa 0,0 mm 0,0 km/h (0 Bft) E-NE 67 0 min 0 W/m 6,2 C 8,8 C 0,0 km/h (0 Bft)
20/11/2011 03:30 8,6 C 84 % 1015,6 hPa 0,0 mm 0,0 km/h (0 Bft) E-NE 67 0 min 0 W/m 6,1 C 8,6 C 0,0 km/h (0 Bft)
20/11/2011 03:35 8,4 C 84 % 1015,5 hPa 0,0 mm 0,0 km/h (0 Bft) E-NE 67 0 min 0 W/m 5,9 C 8,4 C 0,0 km/h (0 Bft)
20/11/2011 03:40 8,2 C 84 % 1015,5 hPa 0,0 mm 0,0 km/h (0 Bft) E-NE 67 0 min 0 W/m 5,7 C 8,2 C 0,0 km/h (0 Bft)
20/11/2011 03:45 7,9 C 84 % 1015,5 hPa 0,0 mm 0,0 km/h (0 Bft) E-NE 67 0 min 0 W/m 5,4 C 7,9 C 0,0 km/h (0 Bft)
20/11/2011 03:50 7,8 C 84 % 1015,4 hPa 0,0 mm 0,0 km/h (0 Bft) E-NE 67 0 min 0 W/m 5,3 C 7,8 C 0,0 km/h (0 Bft)
20/11/2011 03:55 7,6 C 85 % 1015,4 hPa 0,0 mm 0,0 km/h (0 Bft) E-NE 67 0 min 0 W/m 5,2 C 7,6 C 0,0 km/h (0 Bft)
20/11/2011 04:00 7,4 C 85 % 1015,4 hPa 0,0 mm 0,0 km/h (0 Bft) E-NE 67 0 min 0 W/m 5,0 C 7,4 C 0,0 km/h (0 Bft)
20/11/2011 04:05 7,4 C 85 % 1015,4 hPa 0,0 mm 0,0 km/h (0 Bft) E-NE 67 0 min 0 W/m 5,0 C 7,4 C 0,0 km/h (0 Bft)
20/11/2011 04:10 7,3 C 85 % 1015,4 hPa 0,0 mm 0,7 km/h (0 Bft) E-NE 67 0 min 0 W/m 4,9 C 7,3 C 4,3 km/h (1 Bft)
20/11/2011 04:15 7,2 C 86 % 1015,4 hPa 0,0 mm 2,9 km/h (1 Bft) E 90 0 min 0 W/m 5,0 C 7,2 C 4,3 km/h (1 Bft)
20/11/2011 04:20 7,3 C 87 % 1015,4 hPa 0,0 mm 2,2 km/h (1 Bft) E 90 0 min 0 W/m 5,3 C 7,3 C 6,5 km/h (2 Bft)
20/11/2011 04:25 7,3 C 87 % 1015,3 hPa 0,0 mm 1,4 km/h (1 Bft) E 90 0 min 0 W/m 5,3 C 7,3 C 1,4 km/h (1 Bft)
20/11/2011 04:30 7,3 C 87 % 1015,3 hPa 0,0 mm 5,8 km/h (2 Bft) E-SE 112 0 min 0 W/m 5,3 C 6,4 C 8,3 km/h (2 Bft)
20/11/2011 04:35 7,3 C 87 % 1015,4 hPa 0,0 mm 1,1 km/h (1 Bft) E-NE 67 0 min 0 W/m 5,3 C 7,3 C 8,3 km/h (2 Bft)
20/11/2011 04:40 7,3 C 87 % 1015,4 hPa 0,0 mm 2,2 km/h (1 Bft) E-NE 67 0 min 0 W/m 5,3 C 7,3 C 5,4 km/h (2 Bft)
20/11/2011 04:45 7,2 C 87 % 1015,3 hPa 0,0 mm 1,8 km/h (1 Bft) E-NE 67 0 min 0 W/m 5,2 C 7,2 C 9,0 km/h (2 Bft)
20/11/2011 04:50 7,1 C 87 % 1015,3 hPa 0,0 mm 2,9 km/h (1 Bft) E 90 0 min 0 W/m 5,1 C 7,1 C 4,0 km/h (1 Bft)
20/11/2011 04:55 7,1 C 88 % 1015,4 hPa 0,0 mm 1,4 km/h (1 Bft) E-NE 67 0 min 0 W/m 5,2 C 7,1 C 2,9 km/h (1 Bft)
20/11/2011 05:00 7,0 C 88 % 1015,4 hPa 0,0 mm 1,4 km/h (1 Bft) E-NE 67 0 min 0 W/m 5,2 C 7,0 C 2,9 km/h (1 Bft)
20/11/2011 05:05 6,9 C 88 % 1015,4 hPa 0,0 mm 1,4 km/h (1 Bft) E-NE 67 0 min 0 W/m 5,1 C 6,9 C 3,2 km/h (1 Bft)
20/11/2011 05:10 6,9 C 87 % 1015,4 hPa 0,0 mm 5,4 km/h (2 Bft) E-NE 67 0 min 0 W/m 4,9 C 6,1 C 8,3 km/h (2 Bft)
20/11/2011 05:15 6,9 C 88 % 1015,4 hPa 0,0 mm 0,7 km/h (0 Bft) E 90 0 min 0 W/m 5,1 C 6,9 C 0,7 km/h (0 Bft)
20/11/2011 05:20 6,9 C 88 % 1015,3 hPa 0,0 mm 0,0 km/h (0 Bft) E-SE 112 0 min 0 W/m 5,1 C 6,9 C 2,9 km/h (1 Bft)
20/11/2011 05:25 6,8 C 88 % 1015,3 hPa 0,0 mm 4,3 km/h (1 Bft) E-NE 67 0 min 0 W/m 5,0 C 6,8 C 9,4 km/h (2 Bft)
20/11/2011 05:30 6,8 C 88 % 1015,3 hPa 0,0 mm 3,6 km/h (1 Bft) E-NE 67 0 min 0 W/m 5,0 C 6,8 C 3,6 km/h (1 Bft)
20/11/2011 05:35 6,8 C 88 % 1015,3 hPa 0,0 mm 1,8 km/h (1 Bft) NE 45 0 min 0 W/m 5,0 C 6,8 C 3,6 km/h (1 Bft)
20/11/2011 05:40 6,8 C 88 % 1015,3 hPa 0,0 mm 6,8 km/h (2 Bft) E 90 0 min 0 W/m 5,0 C 5,6 C 6,8 km/h (2 Bft)
20/11/2011 05:45 6,8 C 88 % 1015,4 hPa 0,0 mm 5,0 km/h (1 Bft) E-NE 67 0 min 0 W/m 5,0 C 6,1 C 8,6 km/h (2 Bft)
20/11/2011 05:50 6,8 C 88 % 1015,3 hPa 0,0 mm 0,4 km/h (0 Bft) E-SE 112 0 min 0 W/m 5,0 C 6,8 C 3,2 km/h (1 Bft)
20/11/2011 05:55 6,8 C 88 % 1015,3 hPa 0,0 mm 2,9 km/h (1 Bft) E 90 0 min 0 W/m 5,0 C 6,8 C 7,9 km/h (2 Bft)
20/11/2011 06:00 6,8 C 88 % 1015,4 hPa 0,0 mm 5,8 km/h (2 Bft) SE 135 0 min 0 W/m 5,0 C 5,9 C 8,6 km/h (2 Bft)
20/11/2011 06:05 6,9 C 88 % 1015,3 hPa 0,0 mm 3,2 km/h (1 Bft) NE 45 0 min 0 W/m 5,1 C 6,9 C 3,2 km/h (1 Bft)
20/11/2011 06:10 6,9 C 88 % 1015,4 hPa 0,0 mm 5,0 km/h (1 Bft) E-SE 112 0 min 0 W/m 5,1 C 6,2 C 7,2 km/h (2 Bft)
20/11/2011 06:15 6,9 C 88 % 1015,4 hPa 0,0 mm 0,4 km/h (0 Bft) E 90 0 min 0 W/m 5,1 C 6,9 C 0,4 km/h (0 Bft)
20/11/2011 06:20 6,8 C 88 % 1015,3 hPa 0,0 mm 0,0 km/h (0 Bft) E-NE 67 0 min 0 W/m 5,0 C 6,8 C 0,0 km/h (0 Bft)
20/11/2011 06:25 6,8 C 88 % 1015,3 hPa 0,0 mm 0,4 km/h (0 Bft) E-NE 67 0 min 0 W/m 5,0 C 6,8 C 3,6 km/h (1 Bft)
20/11/2011 06:30 6,8 C 88 % 1015,3 hPa 0,0 mm 0,0 km/h (0 Bft) E-NE 67 0 min 0 W/m 5,0 C 6,8 C 3,2 km/h (1 Bft)
20/11/2011 06:35 6,8 C 88 % 1015,2 hPa 0,0 mm 0,4 km/h (0 Bft) E-NE 67 0 min 0 W/m 5,0 C 6,8 C 0,4 km/h (0 Bft)
20/11/2011 06:40 6,8 C 88 % 1015,2 hPa 0,0 mm 1,4 km/h (1 Bft) E-SE 112 0 min 0 W/m 5,0 C 6,8 C 4,0 km/h (1 Bft)
20/11/2011 06:45 6,9 C 88 % 1015,3 hPa 0,0 mm 2,2 km/h (1 Bft) E-NE 67 0 min 0 W/m 5,1 C 6,9 C 3,2 km/h (1 Bft)
20/11/2011 06:50 7,1 C 88 % 1015,2 hPa 0,0 mm 1,4 km/h (1 Bft) E 90 0 min 0 W/m 5,2 C 7,1 C 4,3 km/h (1 Bft)
20/11/2011 06:55 7,2 C 89 % 1015,2 hPa 0,0 mm 4,7 km/h (1 Bft) E 90 0 min 0 W/m 5,5 C 6,7 C 8,6 km/h (2 Bft)
20/11/2011 07:00 7,3 C 88 % 1015,2 hPa 0,0 mm 2,5 km/h (1 Bft) E-SE 112 0 min 0 W/m 5,4 C 7,3 C 2,9 km/h (1 Bft)
20/11/2011 07:05 7,3 C 88 % 1015,2 hPa 0,0 mm 3,2 km/h (1 Bft) N-NE 22 0 min 0 W/m 5,4 C 7,3 C 7,2 km/h (2 Bft)
20/11/2011 07:10 7,3 C 88 % 1015,2 hPa 0,0 mm 4,0 km/h (1 Bft) N-NE 22 0 min 0 W/m 5,4 C 7,3 C 8,3 km/h (2 Bft)
20/11/2011 07:15 7,4 C 87 % 1015,2 hPa 0,0 mm 1,8 km/h (1 Bft) E 90 0 min 0 W/m 5,4 C 7,4 C 6,1 km/h (2 Bft)
20/11/2011 07:20 7,4 C 87 % 1015,2 hPa 0,0 mm 3,2 km/h (1 Bft) E-SE 112 0 min 0 W/m 5,4 C 7,4 C 6,5 km/h (2 Bft)
20/11/2011 07:25 7,3 C 87 % 1015,2 hPa 0,0 mm 0,7 km/h (0 Bft) E-NE 67 0 min 0 W/m 5,3 C 7,3 C 0,7 km/h (0 Bft)
20/11/2011 07:30 7,3 C 87 % 1015,2 hPa 0,0 mm 1,4 km/h (1 Bft) E-NE 67 0 min 0 W/m 5,3 C 7,3 C 1,4 km/h (1 Bft)
20/11/2011 07:35 7,2 C 87 % 1015,2 hPa 0,0 mm 1,4 km/h (1 Bft) E 90 0 min 0 W/m 5,2 C 7,2 C 2,9 km/h (1 Bft)
20/11/2011 07:40 7,1 C 87 % 1015,1 hPa 0,0 mm 0,4 km/h (0 Bft) E-NE 67 0 min 0 W/m 5,1 C 7,1 C 3,2 km/h (1 Bft)
20/11/2011 07:45 7,1 C 87 % 1015,2 hPa 0,0 mm 1,1 km/h (1 Bft) E 90 0 min 0 W/m 5,1 C 7,1 C 1,1 km/h (1 Bft)
20/11/2011 07:50 7,1 C 87 % 1015,2 hPa 0,0 mm 4,3 km/h (1 Bft) E-NE 67 0 min 0 W/m 5,1 C 7,1 C 4,3 km/h (1 Bft)
20/11/2011 07:55 7,1 C 87 % 1015,2 hPa 0,0 mm 1,1 km/h (1 Bft) SE 135 0 min 0 W/m 5,1 C 7,1 C 3,2 km/h (1 Bft)
20/11/2011 08:00 7,1 C 87 % 1015,3 hPa 0,0 mm 2,9 km/h (1 Bft) E 90 0 min 0 W/m 5,1 C 7,1 C 2,9 km/h (1 Bft)
20/11/2011 08:05 7,2 C 87 % 1015,3 hPa 0,0 mm 4,0 km/h (1 Bft) SE 135 0 min 0 W/m 5,2 C 7,2 C 6,5 km/h (2 Bft)
20/11/2011 08:10 7,3 C 87 % 1015,3 hPa 0,0 mm 0,4 km/h (0 Bft) E 90 0 min 0 W/m 5,3 C 7,3 C 3,2 km/h (1 Bft)
20/11/2011 08:15 7,3 C 87 % 1015,4 hPa 0,0 mm 3,6 km/h (1 Bft) E-SE 112 0 min 0 W/m 5,3 C 7,3 C 4,3 km/h (1 Bft)
20/11/2011 08:20 7,3 C 87 % 1015,4 hPa 0,0 mm 2,2 km/h (1 Bft) E 90 0 min 0 W/m 5,3 C 7,3 C 4,0 km/h (1 Bft)
20/11/2011 08:25 7,4 C 87 % 1015,4 hPa 0,0 mm 1,4 km/h (1 Bft) E 90 0 min 0 W/m 5,4 C 7,4 C 6,5 km/h (2 Bft)
20/11/2011 08:30 7,4 C 87 % 1015,5 hPa 0,0 mm 1,1 km/h (1 Bft) E 90 0 min 0 W/m 5,4 C 7,4 C 1,1 km/h (1 Bft)
20/11/2011 08:35 7,4 C 87 % 1015,5 hPa 0,0 mm 2,2 km/h (1 Bft) E-SE 112 0 min 0 W/m 5,4 C 7,4 C 2,9 km/h (1 Bft)
20/11/2011 08:40 7,5 C 87 % 1015,5 hPa 0,0 mm 0,4 km/h (0 Bft) E-SE 112 0 min 0 W/m 5,5 C 7,5 C 4,0 km/h (1 Bft)
20/11/2011 08:45 7,6 C 87 % 1015,5 hPa 0,0 mm 2,9 km/h (1 Bft) E-SE 112 0 min 0 W/m 5,6 C 7,6 C 7,2 km/h (2 Bft)
20/11/2011 08:50 8,0 C 86 % 1015,7 hPa 0,0 mm 2,5 km/h (1 Bft) E-SE 112 0 min 0 W/m 5,8 C 8,0 C 7,6 km/h (2 Bft)
20/11/2011 08:55 8,4 C 86 % 1015,6 hPa 0,0 mm 1,8 km/h (1 Bft) E-SE 112 0 min 0 W/m 6,2 C 8,4 C 4,3 km/h (1 Bft)
20/11/2011 09:00 8,9 C 85 % 1015,6 hPa 0,0 mm 5,4 km/h (2 Bft) E-SE 112 0 min 0 W/m 6,5 C 8,4 C 5,4 km/h (2 Bft)
20/11/2011 09:05 9,1 C 84 % 1015,6 hPa 0,0 mm 2,9 km/h (1 Bft) E-SE 112 0 min 0 W/m 6,5 C 9,1 C 8,6 km/h (2 Bft)
20/11/2011 09:10 9,2 C 84 % 1015,7 hPa 0,0 mm 0,0 km/h (0 Bft) E-SE 112 0 min 0 W/m 6,6 C 9,2 C 2,9 km/h (1 Bft)
20/11/2011 09:15 9,3 C 83 % 1015,6 hPa 0,0 mm 0,0 km/h (0 Bft) E-SE 112 0 min 0 W/m 6,6 C 9,3 C 0,0 km/h (0 Bft)
20/11/2011 09:20 9,2 C 83 % 1015,7 hPa 0,0 mm 2,2 km/h (1 Bft) E-SE 112 0 min 0 W/m 6,5 C 9,2 C 3,2 km/h (1 Bft)
20/11/2011 09:25 9,3 C 83 % 1015,7 hPa 0,0 mm 0,0 km/h (0 Bft) E 90 0 min 0 W/m 6,6 C 9,3 C 0,0 km/h (0 Bft)
20/11/2011 09:30 9,3 C 83 % 1015,8 hPa 0,0 mm 0,0 km/h (0 Bft) SE 135 0 min 0 W/m 6,6 C 9,3 C 0,0 km/h (0 Bft)
20/11/2011 09:35 9,3 C 83 % 1015,8 hPa 0,0 mm 0,0 km/h (0 Bft) SE 135 0 min 0 W/m 6,6 C 9,3 C 0,0 km/h (0 Bft)
20/11/2011 09:40 9,4 C 83 % 1015,7 hPa 0,0 mm 0,0 km/h (0 Bft) E-SE 112 0 min 0 W/m 6,7 C 9,4 C 1,4 km/h (1 Bft)
20/11/2011 09:45 9,4 C 83 % 1015,8 hPa 0,0 mm 0,0 km/h (0 Bft) E 90 0 min 0 W/m 6,7 C 9,4 C 0,0 km/h (0 Bft)
20/11/2011 09:50 9,6 C 83 % 1015,7 hPa 0,0 mm 0,4 km/h (0 Bft) E-SE 112 0 min 0 W/m 6,9 C 9,6 C 4,0 km/h (1 Bft)
20/11/2011 09:55 9,6 C 83 % 1015,7 hPa 0,0 mm 0,0 km/h (0 Bft) SE 135 0 min 0 W/m 6,9 C 9,6 C 0,0 km/h (0 Bft)
20/11/2011 10:00 9,8 C 83 % 1015,7 hPa 0,0 mm 1,1 km/h (1 Bft) E-SE 112 0 min 0 W/m 7,1 C 9,8 C 2,9 km/h (1 Bft)
20/11/2011 10:05 9,9 C 83 % 1015,8 hPa 0,0 mm 0,7 km/h (0 Bft) E-SE 112 0 min 0 W/m 7,2 C 9,9 C 4,3 km/h (1 Bft)
20/11/2011 10:10 10,1 C 83 % 1015,9 hPa 0,0 mm 1,8 km/h (1 Bft) E-SE 112 0 min 0 W/m 7,3 C 10,1 C 1,8 km/h (1 Bft)
20/11/2011 10:15 10,1 C 83 % 1015,8 hPa 0,0 mm 0,7 km/h (0 Bft) E 90 0 min 0 W/m 7,3 C 10,1 C 3,2 km/h (1 Bft)
20/11/2011 10:20 10,3 C 83 % 1015,9 hPa 0,0 mm 0,7 km/h (0 Bft) E 90 0 min 0 W/m 7,5 C 10,3 C 4,0 km/h (1 Bft)
20/11/2011 10:25 10,6 C 83 % 1015,9 hPa 0,0 mm 1,1 km/h (1 Bft) E-SE 112 0 min 0 W/m 7,8 C 10,6 C 4,3 km/h (1 Bft)
20/11/2011 10:30 10,8 C 82 % 1015,9 hPa 0,0 mm 0,0 km/h (0 Bft) SE 135 0 min 0 W/m 7,9 C 10,8 C 0,0 km/h (0 Bft)
20/11/2011 10:35 10,9 C 81 % 1015,9 hPa 0,0 mm 0,7 km/h (0 Bft) E 90 0 min 0 W/m 7,8 C 10,9 C 0,7 km/h (0 Bft)
20/11/2011 10:40 11,1 C 81 % 1016,0 hPa 0,0 mm 0,0 km/h (0 Bft) E-NE 67 0 min 0 W/m 8,0 C 11,1 C 0,0 km/h (0 Bft)
20/11/2011 10:45 11,2 C 81 % 1016,0 hPa 0,0 mm 0,0 km/h (0 Bft) SE 135 0 min 0 W/m 8,1 C 11,2 C 0,0 km/h (0 Bft)
20/11/2011 10:50 11,3 C 80 % 1016,0 hPa 0,0 mm 0,0 km/h (0 Bft) E 90 0 min 0 W/m 8,0 C 11,3 C 0,0 km/h (0 Bft)
20/11/2011 10:55 11,4 C 80 % 1016,1 hPa 0,0 mm 0,0 km/h (0 Bft) E-SE 112 0 min 0 W/m 8,1 C 11,4 C 3,6 km/h (1 Bft)
20/11/2011 11:00 11,5 C 81 % 1016,1 hPa 0,0 mm 0,4 km/h (0 Bft) E 90 0 min 0 W/m 8,4 C 11,5 C 3,6 km/h (1 Bft)
20/11/2011 11:05 11,6 C 80 % 1016,1 hPa 0,0 mm 0,0 km/h (0 Bft) E-SE 112 0 min 0 W/m 8,3 C 11,6 C 0,0 km/h (0 Bft)
20/11/2011 11:10 11,8 C 80 % 1016,1 hPa 0,0 mm 0,0 km/h (0 Bft) E-SE 112 0 min 0 W/m 8,5 C 11,8 C 0,0 km/h (0 Bft)
20/11/2011 11:15 11,9 C 80 % 1016,1 hPa 0,0 mm 0,0 km/h (0 Bft) SE 135 0 min 0 W/m 8,6 C 11,9 C 0,0 km/h (0 Bft)
20/11/2011 11:20 12,1 C 80 % 1016,2 hPa 0,0 mm 0,0 km/h (0 Bft) SE 135 0 min 0 W/m 8,8 C 12,1 C 0,0 km/h (0 Bft)
20/11/2011 11:25 12,4 C 80 % 1016,1 hPa 0,0 mm 0,0 km/h (0 Bft) SE 135 0 min 0 W/m 9,0 C 12,4 C 0,0 km/h (0 Bft)
20/11/2011 11:30 12,6 C 79 % 1016,2 hPa 0,0 mm 0,0 km/h (0 Bft) E-SE 112 0 min 0 W/m 9,1 C 12,6 C 0,0 km/h (0 Bft)
20/11/2011 11:35 12,8 C 79 % 1016,2 hPa 0,0 mm 0,0 km/h (0 Bft) E-NE 67 0 min 0 W/m 9,2 C 12,8 C 0,0 km/h (0 Bft)
20/11/2011 11:40 12,9 C 79 % 1016,0 hPa 0,0 mm 0,0 km/h (0 Bft) E-NE 67 0 min 0 W/m 9,3 C 12,9 C 0,0 km/h (0 Bft)
20/11/2011 11:45 13,1 C 79 % 1016,0 hPa 0,0 mm 0,0 km/h (0 Bft) E-NE 67 0 min 0 W/m 9,5 C 13,1 C 0,0 km/h (0 Bft)
20/11/2011 11:50 13,1 C 79 % 1016,0 hPa 0,0 mm 0,0 km/h (0 Bft) E-NE 67 0 min 0 W/m 9,5 C 13,1 C 0,0 km/h (0 Bft)
20/11/2011 11:55 13,2 C 79 % 1015,9 hPa 0,0 mm 0,0 km/h (0 Bft) E-NE 67 0 min 0 W/m 9,6 C 13,2 C 0,0 km/h (0 Bft)
20/11/2011 12:00 13,3 C 79 % 1015,9 hPa 0,0 mm 0,0 km/h (0 Bft) E-NE 67 0 min 0 W/m 9,7 C 13,3 C 0,0 km/h (0 Bft)
20/11/2011 12:05 13,3 C 79 % 1015,8 hPa 0,0 mm 0,0 km/h (0 Bft) E-NE 67 0 min 0 W/m 9,7 C 13,3 C 0,0 km/h (0 Bft)
20/11/2011 12:10 13,4 C 79 % 1015,8 hPa 0,0 mm 0,0 km/h (0 Bft) E-NE 67 0 min 0 W/m 9,8 C 13,4 C 0,0 km/h (0 Bft)
20/11/2011 12:15 13,5 C 79 % 1015,7 hPa 0,0 mm 0,0 km/h (0 Bft) E-NE 67 0 min 0 W/m 9,9 C 13,5 C 0,0 km/h (0 Bft)
20/11/2011 12:20 13,6 C 79 % 1015,6 hPa 0,0 mm 0,0 km/h (0 Bft) E-NE 67 0 min 0 W/m 10,0 C 13,6 C 0,0 km/h (0 Bft)
20/11/2011 12:25 13,8 C 79 % 1015,6 hPa 0,0 mm 0,7 km/h (0 Bft) NE 45 0 min 0 W/m 10,2 C 13,8 C 3,2 km/h (1 Bft)
20/11/2011 12:30 14,0 C 79 % 1015,5 hPa 0,0 mm 0,0 km/h (0 Bft) E-NE 67 0 min 0 W/m 10,4 C 14,0 C 0,0 km/h (0 Bft)
20/11/2011 12:35 14,4 C 79 % 1015,5 hPa 0,0 mm 0,0 km/h (0 Bft) E-NE 67 0 min 0 W/m 10,8 C 14,4 C 0,0 km/h (0 Bft)
20/11/2011 12:40 15,1 C 78 % 1015,7 hPa 0,0 mm 0,0 km/h (0 Bft) E 90 0 min 0 W/m 11,3 C 15,1 C 0,0 km/h (0 Bft)
20/11/2011 12:45 15,8 C 77 % 1015,9 hPa 0,0 mm 1,8 km/h (1 Bft) E-NE 67 0 min 0 W/m 11,8 C 15,8 C 1,8 km/h (1 Bft)
20/11/2011 12:50 16,4 C 74 % 1015,8 hPa 0,0 mm 0,7 km/h (0 Bft) E-NE 67 0 min 0 W/m 11,8 C 16,4 C 0,7 km/h (0 Bft)
20/11/2011 12:55 16,9 C 74 % 1016,0 hPa 0,0 mm 0,0 km/h (0 Bft) E-NE 67 0 min 0 W/m 12,2 C 16,9 C 0,0 km/h (0 Bft)
20/11/2011 13:00 17,4 C 72 % 1016,0 hPa 0,0 mm 0,4 km/h (0 Bft) E-NE 67 0 min 0 W/m 12,3 C 17,4 C 2,9 km/h (1 Bft)
20/11/2011 13:05 17,8 C 72 % 1015,8 hPa 0,0 mm 0,0 km/h (0 Bft) E-NE 67 0 min 0 W/m 12,7 C 17,8 C 0,0 km/h (0 Bft)
20/11/2011 13:10 18,3 C 70 % 1015,8 hPa 0,0 mm 1,8 km/h (1 Bft) E-NE 67 0 min 0 W/m 12,7 C 18,3 C 3,6 km/h (1 Bft)
20/11/2011 13:15 18,6 C 68 % 1015,6 hPa 0,0 mm 1,1 km/h (1 Bft) E-NE 67 0 min 0 W/m 12,6 C 18,6 C 4,0 km/h (1 Bft)
20/11/2011 13:20 18,9 C 68 % 1015,5 hPa 0,0 mm 0,0 km/h (0 Bft) E-NE 67 0 min 0 W/m 12,9 C 18,9 C 0,0 km/h (0 Bft)
20/11/2011 13:25 19,1 C 66 % 1015,5 hPa 0,0 mm 1,4 km/h (1 Bft) E-SE 112 0 min 0 W/m 12,6 C 19,1 C 4,3 km/h (1 Bft)
20/11/2011 13:30 19,1 C 65 % 1015,5 hPa 0,0 mm 2,2 km/h (1 Bft) E 90 0 min 0 W/m 12,4 C 19,1 C 3,2 km/h (1 Bft)
20/11/2011 13:35 19,3 C 65 % 1015,5 hPa 0,0 mm 0,0 km/h (0 Bft) E 90 0 min 0 W/m 12,6 C 19,3 C 0,0 km/h (0 Bft)
20/11/2011 13:40 19,5 C 65 % 1015,6 hPa 0,0 mm 1,4 km/h (1 Bft) E-SE 112 0 min 0 W/m 12,7 C 19,5 C 1,4 km/h (1 Bft)
20/11/2011 13:45 19,5 C 63 % 1015,5 hPa 0,0 mm 1,8 km/h (1 Bft) E-SE 112 0 min 0 W/m 12,3 C 19,5 C 1,8 km/h (1 Bft)
20/11/2011 13:50 19,6 C 62 % 1015,5 hPa 0,0 mm 0,4 km/h (0 Bft) E-NE 67 0 min 0 W/m 12,1 C 19,6 C 2,9 km/h (1 Bft)
20/11/2011 13:55 19,5 C 60 % 1015,6 hPa 0,0 mm 5,0 km/h (1 Bft) E-SE 112 0 min 0 W/m 11,5 C 19,5 C 11,5 km/h (2 Bft)
20/11/2011 14:00 19,4 C 60 % 1015,4 hPa 0,0 mm 5,0 km/h (1 Bft) NE 45 0 min 0 W/m 11,4 C 19,4 C 5,0 km/h (1 Bft)
20/11/2011 14:05 19,2 C 61 % 1015,2 hPa 0,0 mm 3,2 km/h (1 Bft) E-SE 112 0 min 0 W/m 11,5 C 19,2 C 6,5 km/h (2 Bft)
20/11/2011 14:10 19,2 C 61 % 1015,0 hPa 0,0 mm 0,4 km/h (0 Bft) SE 135 0 min 0 W/m 11,5 C 19,2 C 3,2 km/h (1 Bft)
20/11/2011 14:15 19,1 C 61 % 1015,1 hPa 0,0 mm 8,6 km/h (2 Bft) S-SE 157 0 min 0 W/m 11,4 C 19,1 C 10,8 km/h (2 Bft)
20/11/2011 14:20 19,1 C 61 % 1015,0 hPa 0,0 mm 11,2 km/h (2 Bft) E-SE 112 0 min 0 W/m 11,4 C 19,1 C 13,3 km/h (3 Bft)
20/11/2011 14:25 18,9 C 61 % 1014,9 hPa 0,0 mm 8,3 km/h (2 Bft) S-SE 157 0 min 0 W/m 11,2 C 18,9 C 8,6 km/h (2 Bft)
20/11/2011 14:30 18,7 C 62 % 1014,7 hPa 0,0 mm 1,4 km/h (1 Bft) SE 135 0 min 0 W/m 11,3 C 18,7 C 4,0 km/h (1 Bft)
20/11/2011 14:35 18,5 C 62 % 1014,9 hPa 0,0 mm 3,6 km/h (1 Bft) SE 135 0 min 0 W/m 11,1 C 18,5 C 3,6 km/h (1 Bft)
20/11/2011 14:40 18,3 C 62 % 1014,7 hPa 0,0 mm 10,1 km/h (2 Bft) SE 135 0 min 0 W/m 10,9 C 18,3 C 13,3 km/h (3 Bft)
20/11/2011 14:45 18,2 C 62 % 1014,7 hPa 0,0 mm 7,6 km/h (2 Bft) S 180 0 min 0 W/m 10,8 C 18,2 C 10,4 km/h (2 Bft)
20/11/2011 14:50 18,1 C 63 % 1014,7 hPa 0,0 mm 2,2 km/h (1 Bft) SE 135 0 min 0 W/m 10,9 C 18,1 C 4,3 km/h (1 Bft)
20/11/2011 14:55 18,0 C 64 % 1014,6 hPa 0,0 mm 0,0 km/h (0 Bft) E-SE 112 0 min 0 W/m 11,1 C 18,0 C 0,0 km/h (0 Bft)
20/11/2011 15:00 18,0 C 65 % 1014,6 hPa 0,0 mm 0,0 km/h (0 Bft) E-SE 112 0 min 0 W/m 11,3 C 18,0 C 0,0 km/h (0 Bft)
20/11/2011 15:05 17,9 C 64 % 1014,6 hPa 0,0 mm 2,9 km/h (1 Bft) S-SE 157 0 min 0 W/m 11,0 C 17,9 C 4,3 km/h (1 Bft)
20/11/2011 15:10 17,8 C 64 % 1014,6 hPa 0,0 mm 2,5 km/h (1 Bft) SE 135 0 min 0 W/m 10,9 C 17,8 C 3,6 km/h (1 Bft)
20/11/2011 15:15 17,8 C 65 % 1014,5 hPa 0,0 mm 0,0 km/h (0 Bft) SE 135 0 min 0 W/m 11,1 C 17,8 C 0,0 km/h (0 Bft)
20/11/2011 15:20 17,7 C 65 % 1014,5 hPa 0,0 mm 1,8 km/h (1 Bft) S 180 0 min 0 W/m 11,0 C 17,7 C 4,3 km/h (1 Bft)
20/11/2011 15:25 17,6 C 65 % 1014,5 hPa 0,0 mm 1,8 km/h (1 Bft) SE 135 0 min 0 W/m 10,9 C 17,6 C 3,6 km/h (1 Bft)
20/11/2011 15:30 17,6 C 65 % 1014,3 hPa 0,0 mm 0,7 km/h (0 Bft) SE 135 0 min 0 W/m 10,9 C 17,6 C 3,2 km/h (1 Bft)
20/11/2011 15:35 17,6 C 65 % 1014,2 hPa 0,0 mm 2,2 km/h (1 Bft) SE 135 0 min 0 W/m 10,9 C 17,6 C 4,0 km/h (1 Bft)
20/11/2011 15:40 17,5 C 65 % 1014,2 hPa 0,0 mm 2,5 km/h (1 Bft) E-SE 112 0 min 0 W/m 10,8 C 17,5 C 3,6 km/h (1 Bft)
20/11/2011 15:45 17,5 C 65 % 1014,2 hPa 0,0 mm 2,5 km/h (1 Bft) SE 135 0 min 0 W/m 10,8 C 17,5 C 4,3 km/h (1 Bft)
20/11/2011 15:50 17,5 C 65 % 1014,2 hPa 0,0 mm 1,4 km/h (1 Bft) SE 135 0 min 0 W/m 10,8 C 17,5 C 1,4 km/h (1 Bft)
20/11/2011 15:55 17,4 C 66 % 1014,2 hPa 0,0 mm 0,7 km/h (0 Bft) E-SE 112 0 min 0 W/m 11,0 C 17,4 C 0,7 km/h (0 Bft)
20/11/2011 16:00 17,4 C 65 % 1014,2 hPa 0,0 mm 2,2 km/h (1 Bft) SE 135 0 min 0 W/m 10,8 C 17,4 C 4,3 km/h (1 Bft)
20/11/2011 16:05 17,4 C 65 % 1014,2 hPa 0,0 mm 0,0 km/h (0 Bft) E 90 0 min 0 W/m 10,8 C 17,4 C 0,0 km/h (0 Bft)
20/11/2011 16:10 17,3 C 65 % 1014,1 hPa 0,0 mm 0,0 km/h (0 Bft) E-SE 112 0 min 0 W/m 10,7 C 17,3 C 0,0 km/h (0 Bft)
20/11/2011 16:15 17,3 C 66 % 1014,2 hPa 0,0 mm 1,4 km/h (1 Bft) E-SE 112 0 min 0 W/m 10,9 C 17,3 C 4,0 km/h (1 Bft)
20/11/2011 16:20 17,2 C 66 % 1014,1 hPa 0,0 mm 3,2 km/h (1 Bft) SE 135 0 min 0 W/m 10,8 C 17,2 C 4,3 km/h (1 Bft)
20/11/2011 16:25 17,1 C 66 % 1014,1 hPa 0,0 mm 2,2 km/h (1 Bft) SE 135 0 min 0 W/m 10,7 C 17,1 C 2,2 km/h (1 Bft)
20/11/2011 16:30 17,1 C 66 % 1014,0 hPa 0,0 mm 2,2 km/h (1 Bft) SE 135 0 min 0 W/m 10,7 C 17,1 C 4,0 km/h (1 Bft)
20/11/2011 16:35 17,1 C 66 % 1014,0 hPa 0,0 mm 2,2 km/h (1 Bft) SE 135 0 min 0 W/m 10,7 C 17,1 C 3,6 km/h (1 Bft)
20/11/2011 16:40 16,9 C 67 % 1014,1 hPa 0,0 mm 0,0 km/h (0 Bft) SE 135 0 min 0 W/m 10,7 C 16,9 C 0,0 km/h (0 Bft)
20/11/2011 16:45 16,9 C 67 % 1014,0 hPa 0,0 mm 0,7 km/h (0 Bft) S-SE 157 0 min 0 W/m 10,7 C 16,9 C 2,9 km/h (1 Bft)
20/11/2011 16:50 16,8 C 67 % 1014,0 hPa 0,0 mm 0,7 km/h (0 Bft) E-SE 112 0 min 0 W/m 10,6 C 16,8 C 0,7 km/h (0 Bft)
20/11/2011 16:55 16,8 C 67 % 1014,0 hPa 0,0 mm 0,4 km/h (0 Bft) E-SE 112 0 min 0 W/m 10,6 C 16,8 C 0,4 km/h (0 Bft)
20/11/2011 17:00 16,6 C 68 % 1013,9 hPa 0,0 mm 1,4 km/h (1 Bft) SE 135 0 min 0 W/m 10,7 C 16,6 C 1,4 km/h (1 Bft)
20/11/2011 17:05 16,6 C 67 % 1013,9 hPa 0,0 mm 0,0 km/h (0 Bft) E-SE 112 0 min 0 W/m 10,4 C 16,6 C 0,0 km/h (0 Bft)
20/11/2011 17:10 16,6 C 67 % 1013,9 hPa 0,0 mm 0,4 km/h (0 Bft) E-SE 112 0 min 0 W/m 10,4 C 16,6 C 4,0 km/h (1 Bft)
20/11/2011 17:15 16,5 C 67 % 1013,9 hPa 0,0 mm 0,0 km/h (0 Bft) E-SE 112 0 min 0 W/m 10,4 C 16,5 C 0,0 km/h (0 Bft)
20/11/2011 17:20 16,4 C 68 % 1013,9 hPa 0,0 mm 2,2 km/h (1 Bft) SE 135 0 min 0 W/m 10,5 C 16,4 C 4,0 km/h (1 Bft)
20/11/2011 17:25 16,3 C 68 % 1013,9 hPa 0,0 mm 0,0 km/h (0 Bft) E-SE 112 0 min 0 W/m 10,4 C 16,3 C 0,0 km/h (0 Bft)
20/11/2011 17:30 16,3 C 68 % 1013,9 hPa 0,0 mm 1,1 km/h (1 Bft) SE 135 0 min 0 W/m 10,4 C 16,3 C 3,6 km/h (1 Bft)
20/11/2011 17:35 16,2 C 69 % 1013,9 hPa 0,0 mm 1,1 km/h (1 Bft) E-SE 112 0 min 0 W/m 10,5 C 16,2 C 1,1 km/h (1 Bft)
20/11/2011 17:40 16,1 C 69 % 1014,0 hPa 0,0 mm 0,7 km/h (0 Bft) E-SE 112 0 min 0 W/m 10,4 C 16,1 C 4,0 km/h (1 Bft)
20/11/2011 17:45 16,1 C 69 % 1014,0 hPa 0,0 mm 4,0 km/h (1 Bft) E-SE 112 0 min 0 W/m 10,4 C 16,1 C 4,3 km/h (1 Bft)
20/11/2011 17:50 16,1 C 69 % 1014,0 hPa 0,0 mm 0,0 km/h (0 Bft) SE 135 0 min 0 W/m 10,4 C 16,1 C 0,0 km/h (0 Bft)
20/11/2011 17:55 15,9 C 69 % 1014,0 hPa 0,0 mm 5,0 km/h (1 Bft) E-SE 112 0 min 0 W/m 10,2 C 15,9 C 9,4 km/h (2 Bft)
20/11/2011 18:00 15,9 C 69 % 1014,0 hPa 0,0 mm 1,4 km/h (1 Bft) SE 135 0 min 0 W/m 10,2 C 15,9 C 3,2 km/h (1 Bft)
20/11/2011 18:05 15,9 C 69 % 1014,1 hPa 0,0 mm 1,8 km/h (1 Bft) E-SE 112 0 min 0 W/m 10,2 C 15,9 C 4,3 km/h (1 Bft)
20/11/2011 18:10 15,8 C 70 % 1014,2 hPa 0,0 mm 1,8 km/h (1 Bft) SE 135 0 min 0 W/m 10,3 C 15,8 C 4,3 km/h (1 Bft)
20/11/2011 18:15 15,8 C 69 % 1014,1 hPa 0,0 mm 4,0 km/h (1 Bft) SE 135 0 min 0 W/m 10,1 C 15,8 C 4,0 km/h (1 Bft)
20/11/2011 18:20 15,8 C 70 % 1014,0 hPa 0,0 mm 0,4 km/h (0 Bft) E-SE 112 0 min 0 W/m 10,3 C 15,8 C 3,2 km/h (1 Bft)
20/11/2011 18:25 15,8 C 70 % 1013,9 hPa 0,0 mm 2,9 km/h (1 Bft) SE 135 0 min 0 W/m 10,3 C 15,8 C 6,1 km/h (2 Bft)
20/11/2011 18:30 15,8 C 70 % 1013,8 hPa 0,0 mm 1,4 km/h (1 Bft) E-SE 112 0 min 0 W/m 10,3 C 15,8 C 1,4 km/h (1 Bft)
20/11/2011 18:35 15,7 C 70 % 1013,9 hPa 0,0 mm 4,0 km/h (1 Bft) S-SE 157 0 min 0 W/m 10,2 C 15,7 C 6,5 km/h (2 Bft)
20/11/2011 18:40 15,6 C 70 % 1014,0 hPa 0,0 mm 1,4 km/h (1 Bft) SE 135 0 min 0 W/m 10,1 C 15,6 C 4,0 km/h (1 Bft)
20/11/2011 18:45 15,6 C 70 % 1014,1 hPa 0,0 mm 0,4 km/h (0 Bft) S-SE 157 0 min 0 W/m 10,1 C 15,6 C 2,9 km/h (1 Bft)
20/11/2011 18:50 15,5 C 70 % 1014,2 hPa 0,0 mm 0,0 km/h (0 Bft) SE 135 0 min 0 W/m 10,1 C 15,5 C 2,9 km/h (1 Bft)
20/11/2011 18:55 15,4 C 70 % 1014,4 hPa 0,0 mm 0,4 km/h (0 Bft) E-SE 112 0 min 0 W/m 10,0 C 15,4 C 3,2 km/h (1 Bft)
20/11/2011 19:00 15,4 C 70 % 1014,5 hPa 0,0 mm 0,0 km/h (0 Bft) SE 135 0 min 0 W/m 10,0 C 15,4 C 4,3 km/h (1 Bft)
20/11/2011 19:05 15,3 C 70 % 1014,5 hPa 0,0 mm 0,4 km/h (0 Bft) E-SE 112 0 min 0 W/m 9,9 C 15,3 C 3,2 km/h (1 Bft)
20/11/2011 19:10 15,2 C 71 % 1014,6 hPa 0,0 mm 4,0 km/h (1 Bft) SE 135 0 min 0 W/m 10,0 C 15,2 C 6,1 km/h (2 Bft)
20/11/2011 19:15 15,2 C 71 % 1014,6 hPa 0,0 mm 2,9 km/h (1 Bft) E-SE 112 0 min 0 W/m 10,0 C 15,2 C 4,0 km/h (1 Bft)
20/11/2011 19:20 15,1 C 71 % 1014,6 hPa 0,0 mm 2,2 km/h (1 Bft) S-SE 157 0 min 0 W/m 9,9 C 15,1 C 3,2 km/h (1 Bft)
20/11/2011 19:25 15,1 C 71 % 1014,6 hPa 0,0 mm 0,4 km/h (0 Bft) S-SE 157 0 min 0 W/m 9,9 C 15,1 C 0,4 km/h (0 Bft)
20/11/2011 19:30 14,9 C 71 % 1014,6 hPa 0,0 mm 0,7 km/h (0 Bft) S-SE 157 0 min 0 W/m 9,7 C 14,9 C 0,7 km/h (0 Bft)
20/11/2011 19:35 14,9 C 71 % 1014,7 hPa 0,0 mm 2,2 km/h (1 Bft) S-SE 157 0 min 0 W/m 9,7 C 14,9 C 7,6 km/h (2 Bft)
20/11/2011 19:40 14,8 C 71 % 1014,6 hPa 0,0 mm 4,3 km/h (1 Bft) E-SE 112 0 min 0 W/m 9,6 C 14,8 C 6,5 km/h (2 Bft)
20/11/2011 19:45 14,8 C 71 % 1014,6 hPa 0,0 mm 3,2 km/h (1 Bft) S-SE 157 0 min 0 W/m 9,6 C 14,8 C 3,2 km/h (1 Bft)
20/11/2011 19:50 14,8 C 72 % 1014,7 hPa 0,0 mm 6,1 km/h (2 Bft) SE 135 0 min 0 W/m 9,8 C 14,8 C 8,3 km/h (2 Bft)
20/11/2011 19:55 14,7 C 72 % 1014,7 hPa 0,0 mm 3,6 km/h (1 Bft) SE 135 0 min 0 W/m 9,7 C 14,7 C 4,3 km/h (1 Bft)
20/11/2011 20:00 14,6 C 72 % 1014,7 hPa 0,0 mm 1,4 km/h (1 Bft) E-SE 112 0 min 0 W/m 9,6 C 14,6 C 3,6 km/h (1 Bft)
20/11/2011 20:05 14,5 C 72 % 1014,7 hPa 0,0 mm 3,2 km/h (1 Bft) S-SE 157 0 min 0 W/m 9,5 C 14,5 C 9,4 km/h (2 Bft)
20/11/2011 20:10 14,4 C 72 % 1014,6 hPa 0,0 mm 2,2 km/h (1 Bft) SE 135 0 min 0 W/m 9,4 C 14,4 C 2,2 km/h (1 Bft)
20/11/2011 20:15 14,3 C 72 % 1014,7 hPa 0,0 mm 0,7 km/h (0 Bft) S 180 0 min 0 W/m 9,3 C 14,3 C 0,7 km/h (0 Bft)
20/11/2011 20:20 14,2 C 72 % 1014,8 hPa 0,0 mm 0,0 km/h (0 Bft) SE 135 0 min 0 W/m 9,2 C 14,2 C 0,0 km/h (0 Bft)
20/11/2011 20:25 14,1 C 73 % 1014,7 hPa 0,0 mm 2,2 km/h (1 Bft) SE 135 0 min 0 W/m 9,3 C 14,1 C 2,2 km/h (1 Bft)
20/11/2011 20:30 13,9 C 73 % 1014,8 hPa 0,0 mm 3,6 km/h (1 Bft) SE 135 0 min 0 W/m 9,1 C 13,9 C 4,3 km/h (1 Bft)
20/11/2011 20:35 13,9 C 73 % 1014,6 hPa 0,0 mm 2,9 km/h (1 Bft) SE 135 0 min 0 W/m 9,1 C 13,9 C 6,8 km/h (2 Bft)
20/11/2011 20:40 13,8 C 73 % 1014,7 hPa 0,0 mm 2,5 km/h (1 Bft) SE 135 0 min 0 W/m 9,0 C 13,8 C 6,1 km/h (2 Bft)
20/11/2011 20:45 13,8 C 74 % 1014,7 hPa 0,0 mm 4,0 km/h (1 Bft) S-SE 157 0 min 0 W/m 9,2 C 13,8 C 6,8 km/h (2 Bft)
20/11/2011 20:50 13,8 C 74 % 1014,6 hPa 0,0 mm 0,7 km/h (0 Bft) S-SE 157 0 min 0 W/m 9,2 C 13,8 C 0,7 km/h (0 Bft)
20/11/2011 20:55 13,8 C 74 % 1014,7 hPa 0,0 mm 0,4 km/h (0 Bft) E-SE 112 0 min 0 W/m 9,2 C 13,8 C 3,6 km/h (1 Bft)
20/11/2011 21:00 13,8 C 74 % 1014,6 hPa 0,0 mm 7,2 km/h (2 Bft) S-SE 157 0 min 0 W/m 9,2 C 13,8 C 10,8 km/h (2 Bft)
20/11/2011 21:05 13,8 C 74 % 1014,7 hPa 0,0 mm 2,2 km/h (1 Bft) SE 135 0 min 0 W/m 9,2 C 13,8 C 6,1 km/h (2 Bft)
20/11/2011 21:10 13,8 C 75 % 1014,6 hPa 0,0 mm 2,2 km/h (1 Bft) S 180 0 min 0 W/m 9,4 C 13,8 C 3,6 km/h (1 Bft)
20/11/2011 21:15 13,8 C 75 % 1014,7 hPa 0,0 mm 4,7 km/h (1 Bft) S-SE 157 0 min 0 W/m 9,4 C 13,8 C 9,0 km/h (2 Bft)
20/11/2011 21:20 13,8 C 75 % 1014,7 hPa 0,0 mm 1,4 km/h (1 Bft) S-SO 202 0 min 0 W/m 9,4 C 13,8 C 4,3 km/h (1 Bft)
20/11/2011 21:25 13,9 C 75 % 1014,7 hPa 0,0 mm 6,5 km/h (2 Bft) S 180 0 min 0 W/m 9,5 C 13,9 C 8,3 km/h (2 Bft)
20/11/2011 21:30 13,9 C 75 % 1014,6 hPa 0,0 mm 7,2 km/h (2 Bft) E-SE 112 0 min 0 W/m 9,5 C 13,9 C 14,4 km/h (3 Bft)
20/11/2011 21:35 14,1 C 75 % 1014,7 hPa 0,0 mm 3,6 km/h (1 Bft) S-SE 157 0 min 0 W/m 9,7 C 14,1 C 7,6 km/h (2 Bft)
20/11/2011 21:40 14,1 C 75 % 1014,8 hPa 0,0 mm 6,5 km/h (2 Bft) S-SE 157 0 min 0 W/m 9,7 C 14,1 C 10,8 km/h (2 Bft)
20/11/2011 21:45 14,2 C 75 % 1014,8 hPa 0,0 mm 4,3 km/h (1 Bft) S 180 0 min 0 W/m 9,8 C 14,2 C 8,3 km/h (2 Bft)
20/11/2011 21:50 14,2 C 74 % 1014,8 hPa 0,0 mm 0,7 km/h (0 Bft) S-SE 157 0 min 0 W/m 9,6 C 14,2 C 4,0 km/h (1 Bft)
20/11/2011 21:55 14,3 C 74 % 1014,8 hPa 0,0 mm 3,2 km/h (1 Bft) S-SE 157 0 min 0 W/m 9,7 C 14,3 C 3,6 km/h (1 Bft)
20/11/2011 22:00 14,3 C 74 % 1014,8 hPa 0,0 mm 1,1 km/h (1 Bft) SO 225 0 min 0 W/m 9,7 C 14,3 C 4,3 km/h (1 Bft)
20/11/2011 22:05 14,3 C 74 % 1014,8 hPa 0,0 mm 1,1 km/h (1 Bft) S-SE 157 0 min 0 W/m 9,7 C 14,3 C 11,5 km/h (2 Bft)
20/11/2011 22:10 14,3 C 74 % 1014,8 hPa 0,0 mm 1,8 km/h (1 Bft) S-SE 157 0 min 0 W/m 9,7 C 14,3 C 4,3 km/h (1 Bft)
20/11/2011 22:15 14,3 C 74 % 1014,8 hPa 0,0 mm 4,0 km/h (1 Bft) SE 135 0 min 0 W/m 9,7 C 14,3 C 6,8 km/h (2 Bft)
20/11/2011 22:20 14,2 C 74 % 1014,9 hPa 0,0 mm 5,4 km/h (2 Bft) S 180 0 min 0 W/m 9,6 C 14,2 C 11,2 km/h (2 Bft)
20/11/2011 22:25 14,1 C 74 % 1014,8 hPa 0,0 mm 4,7 km/h (1 Bft) SE 135 0 min 0 W/m 9,5 C 14,1 C 8,6 km/h (2 Bft)
20/11/2011 22:30 14,1 C 74 % 1014,9 hPa 0,0 mm 5,4 km/h (2 Bft) S 180 0 min 0 W/m 9,5 C 14,1 C 8,6 km/h (2 Bft)
20/11/2011 22:35 14,0 C 75 % 1014,8 hPa 0,0 mm 6,5 km/h (2 Bft) SE 135 0 min 0 W/m 9,6 C 14,0 C 11,5 km/h (2 Bft)
20/11/2011 22:40 13,9 C 75 % 1014,7 hPa 0,0 mm 5,0 km/h (1 Bft) SE 135 0 min 0 W/m 9,5 C 13,9 C 6,8 km/h (2 Bft)
20/11/2011 22:45 13,8 C 75 % 1014,8 hPa 0,0 mm 5,0 km/h (1 Bft) S 180 0 min 0 W/m 9,4 C 13,8 C 5,0 km/h (1 Bft)
20/11/2011 22:50 13,8 C 75 % 1014,7 hPa 0,0 mm 7,9 km/h (2 Bft) S-SE 157 0 min 0 W/m 9,4 C 13,8 C 12,2 km/h (2 Bft)
20/11/2011 22:55 13,8 C 76 % 1014,7 hPa 0,0 mm 5,0 km/h (1 Bft) S-SE 157 0 min 0 W/m 9,6 C 13,8 C 13,3 km/h (3 Bft)
20/11/2011 23:00 13,6 C 76 % 1014,7 hPa 0,0 mm 3,6 km/h (1 Bft) S 180 0 min 0 W/m 9,4 C 13,6 C 10,8 km/h (2 Bft)
20/11/2011 23:05 13,5 C 76 % 1014,6 hPa 0,0 mm 6,5 km/h (2 Bft) S-SE 157 0 min 0 W/m 9,4 C 13,5 C 9,7 km/h (2 Bft)
20/11/2011 23:10 13,4 C 76 % 1014,6 hPa 0,0 mm 6,8 km/h (2 Bft) S-SO 202 0 min 0 W/m 9,3 C 13,4 C 9,4 km/h (2 Bft)
20/11/2011 23:15 13,4 C 77 % 1014,6 hPa 0,0 mm 5,8 km/h (2 Bft) S-SO 202 0 min 0 W/m 9,5 C 13,4 C 10,1 km/h (2 Bft)
20/11/2011 23:20 13,4 C 77 % 1014,6 hPa 0,0 mm 6,8 km/h (2 Bft) S 180 0 min 0 W/m 9,5 C 13,4 C 8,3 km/h (2 Bft)
20/11/2011 23:25 13,3 C 77 % 1014,6 hPa 0,0 mm 5,0 km/h (1 Bft) S-SO 202 0 min 0 W/m 9,4 C 13,3 C 12,2 km/h (2 Bft)
20/11/2011 23:30 13,3 C 77 % 1014,5 hPa 0,0 mm 6,1 km/h (2 Bft) S 180 0 min 0 W/m 9,4 C 13,3 C 12,2 km/h (2 Bft)
20/11/2011 23:35 13,3 C 78 % 1014,5 hPa 0,0 mm 8,3 km/h (2 Bft) SO 225 0 min 0 W/m 9,5 C 13,3 C 10,4 km/h (2 Bft)
20/11/2011 23:40 13,3 C 78 % 1014,5 hPa 0,0 mm 10,1 km/h (2 Bft) S-SO 202 0 min 0 W/m 9,5 C 13,3 C 14,4 km/h (3 Bft)
20/11/2011 23:45 13,3 C 78 % 1014,5 hPa 0,0 mm 6,5 km/h (2 Bft) S-SE 157 0 min 0 W/m 9,5 C 13,3 C 12,6 km/h (3 Bft)
20/11/2011 23:50 13,3 C 78 % 1014,5 hPa 0,0 mm 5,0 km/h (1 Bft) S-SO 202 0 min 0 W/m 9,5 C 13,3 C 11,2 km/h (2 Bft)
20/11/2011 23:55 13,3 C 78 % 1014,4 hPa 0,0 mm 9,0 km/h (2 Bft) S-SO 202 0 min 0 W/m 9,5 C 13,3 C 13,7 km/h (3 Bft)
_ Min-Heure 06:40 14:00 18:30 - 20:20 - - - - 05:10 05:40 20:20
Minimum _ 6,8 C 60 % 1013,8 hPa - 0,0 km/h (0 Bft) - - - - 4,9 C 5,6 C 0,0 km/h (0 Bft)
_ Max-Heure 13:50 06:55 11:35 23:55 14:20 - - 23:55 23:55 13:20 13:50 23:40
Maximum _ 19,6 C 89 % 1016,2 hPa 0,0 mm 11,2 km/h
E-SE (2 Bft)
- - 0 min 0 W/m 12,9 C 19,6 C 14,4 km/h
S-SO (3 Bft)
Moyenne _ 12,3 C 78 % 1015,1 hPa #0,0 mm 2,0 km/h (1 Bft) E-SE - #0 min. 0 W/m 8,3 C 12,2 C 3,8 km/h (1 Bft)
Saint Bonnet de Bellac- Haute Vienne - France